Location: Unspecified
(0.0000°N, 0.0000°E)
Time: 02:45:35
(UTC+00:00)

STARLINK-1273 - Pass Details

Date: 20 February 2026
Orbit: 434 x 436 km, 53.1° (Epoch: 6 March)

Event Time Altitude Azimuth Distance (km) Brightness Sun altitude
Rises 05:44:13 0° 214° (SW) 2,404 6.7 -7.2°
Reaches altitude 10° 05:46:19 10° 214° (SSW) 1,536 5.7 -6.7°
Maximum altitude 05:49:46 89° 137° (SE) 438 3.1 -5.9°
Drops below altitude 10° 05:53:13 10° 34° (NE) 1,534 6.2 -5.0°
Sets 05:55:20 0° 34° (NE) 2,400 7.2 -4.5°
